Regional Weather Roundup
Issued by NWS State College, PA

Home | Current Version | Previous Version | Text Only | Print | Product List | Glossary On
Versions: 1 2 3 4 5 6 7 8 9 10 11 12 13 14 15 16 17 18 19 20 21 22 23 24 25 26 27 28 29 30 31 32 33 34 35 36 37 38 39 40 41 42 43 44 45 46 47 48 49 50
246
ASUS41 KCTP 191803
RWRCTP

REGIONAL WEATHER ROUNDUP
NATIONAL WEATHER SERVICE STATE COLLEGE PA
200 PM EDT THU OCT 19 2017

Note: "fair" indicates few or no clouds below 12,000 feet with no
significant weather and/or obstructions to visibility.

* = STATION THAT DOES NOT REPORT PRECIPITATION /E.G. RAIN...SNOW...ETC/
    THUNDER OR FOG.

PAZ002>004-007>009-013>016-020>023-029>032-191900-
WESTERN PENNSYLVANIA

CITY           SKY/WX    TMP DP  RH WIND       PRES   REMARKS
ERIE           FAIR      65  52  62 W13G22    30.10F
MEADVILLE      FAIR      67  48  50 SW10G18   30.13F
FRANKLIN*      FAIR      66  47  50 SW12G22   30.16F
NEW CASTLE     FAIR      69  48  47 SW10G20   30.16F
BEAVER COUNTY  SUNNY     70  48  46 SW10G16   30.18F
BUTLER*        FAIR      67  48  50 W10G22    30.18F
PITTSBURGH INT PTSUNNY   67  46  47 W14       30.19F
PITTSBURGH     FAIR      68  42  38 SW14      30.19F
INDIANA*       SUNNY     66  45  45 W15G21    30.21F
LATROBE        NOT AVBL
WASHINGTON CO* FAIR      69  45  41 SW10      30.23F
$$

PAZ004>006-010>012-017>019-024>028-033>037-041-042-045-046-049>053-191900-
CENTRAL PENNSYLVANIA

CITY           SKY/WX    TMP DP  RH WIND       PRES   REMARKS
BRADFORD       FAIR      66  43  43 SW12G18   30.12F
DUBOIS         FAIR      66  42  41 W15G28    30.16F
CLEARFIELD     FAIR      68  42  38 SW12G21   30.16F
JOHNSTOWN      FAIR      65  40  39 W12       30.20F
ALTOONA        FAIR      72  41  32 W13       30.18F
STATE COLLEGE  SUNNY     70  45  40 SW12      30.15F
WILLIAMSPORT   FAIR      67  50  54 SE5       30.12F
SELINSGROVE    FAIR      69  48  47 S9        30.15F
FT INDIANTOWN  FAIR      68  46  44 SW8       30.16F
CAPITAL CITY   FAIR      71  45  39 VRB3      30.16F
HARRISBURG     FAIR      68  51  54 S3        30.16F
YORK           FAIR      70  45  40 VRB5      30.17F
$$

PAZ038>040-043-044-047-048-054-055-060>062-067>071-191900-
EASTERN PENNSYLVANIA

CITY           SKY/WX    TMP DP  RH WIND       PRES   REMARKS
SCRANTON       FAIR      69  42  37 SW13G18   30.13F
MOUNT POCONO   FAIR      66  41  40 SW12      30.15F
ALLENTOWN      FAIR      71  43  36 S13       30.16F
QUAKERTOWN*    FAIR      68  41  37 SW10      30.19F
READING        FAIR      70  48  45 W8        30.16F
LANCASTER      FAIR      70  47  43 SW6       30.17F
COATESVILLE    FAIR      68  45  42 VRB6      30.20F
POTTSTOWN      FAIR      69  43  38 S8        30.19F
BLUE BELL      FAIR      70  45  40 SW8       30.19F
DOYLESTOWN     FAIR      70  41  34 SW8       30.17F
WILLOW GROVE   NOT AVBL
NORTH PHILA    FAIR      71  44  37 SW12      30.19F
PHILADELPHIA   FAIR      70  44  39 SW12      30.19F
$$




USA.gov is the U.S. government's official web portal to all federal, state and local government web resources and services.